Covington, KY

12:46 AM EST on December 14, 2019 (GMT -0500)
Cincinnati-Northern KY International

Weather History for KCVG - October, 2019

Change the Weather History Date:

Thursday, October 31, 2019

  Actual Average Record
Temperature  
Mean Temperature 46 °F 51 °F  
Max Temperature 57 °F 61 °F 81 °F (1950)
Min Temperature 33 °F 41 °F 24 °F (1923)
Degree Days  
Heating Degree Days 20 14  
Month to date heating degree days 214 304  
Since 1 July heating degree days 214 362  
Cooling Degree Days 0 0  
Month to date cooling degree days 55 16  
Year to date cooling degree days 1497 1121  
Moisture  
Dew Point 46 °F    
Average Humidity 87    
Maximum Humidity 97    
Minimum Humidity 70    
Precipitation  
Precipitation 0.80 in 0.11 in 1.49 in (1941)
Month to date precipitation 3.61 3.30  
Year to date precipitation 46.03 35.72  
Snow  
Snow 0.00 in 0.00 in 0.30 in (1993)
Month to date snowfall 0.0 0.4  
Since 1 July snowfall 0.0 0.4  
Since 1 September snowfall 0.0 0.4  
Snow Depth 0.00 in    
Sea Level Pressure  
Sea Level Pressure 29.77 in    
Wind  
Wind Speed 8 mph ()    
Max Wind Speed 31 mph    
Max Gust Speed 40 mph    
Visibility 5.7 miles    
Events Fog , Rain    
T = Trace of Precipitation, MM = Missing Value Source: Averaged Metar Reports

Daily Weather History Graph

Daily Weather History Graph

Search for Another Location

Airport or City:

Astronomy

Oct. 31, 2019 Rise Set
Actual Time 8:04 AM EDT 6:39 PM EDT
Civil Twilight 7:37 AM EDT 7:06 PM EDT
Nautical Twilight 7:05 AM EDT 7:38 PM EDT
Astronomical Twilight 6:34 AM EDT 8:09 PM EDT
Moon 11:50 AM EDT (10/31) 9:36 PM EDT (10/31)
Length of Visible Light 11h 29m
Length of Day
10h 34m
Waxing Crescent, 15% of the Moon is Illuminated
Oct 31
Waxing Crescent
Nov 4
First Quarter
Nov 12
Full
Nov 19
Last Quarter
Nov 26
New

Hourly Weather History & Observations

Time (EDT) Temp. Windchill Dew Point Humidity Pressure Visibility Wind Dir Wind Speed Gust Speed Precip Events Conditions
12:30 AM 57.0 °F - 55.9 °F 96% 29.84 in 0.2 mi West 3.5 mph - 0.00 in Fog Light Drizzle
12:52 AM 57.0 °F - 55.0 °F 93% 29.83 in 0.2 mi WSW 3.5 mph - 0.00 in Fog Light Drizzle
1:52 AM 57.0 °F - 55.0 °F 93% 29.80 in 0.5 mi Calm Calm - 0.00 in Fog Fog
2:37 AM 57.0 °F - 55.0 °F 93% 29.78 in 0.5 mi South 4.6 mph - N/A   Mist
2:52 AM 57.0 °F - 55.0 °F 93% 29.78 in 0.5 mi SSW 4.6 mph - N/A   Mist
3:52 AM 57.0 °F - 55.9 °F 96% 29.74 in 0.2 mi South 4.6 mph - N/A Fog Fog
4:52 AM 57.0 °F - 55.9 °F 96% 29.70 in 0.5 mi SSE 5.8 mph - 0.00 in Fog Light Drizzle
5:52 AM 57.0 °F - 55.9 °F 96% 29.69 in 0.5 mi South 3.5 mph - 0.04 in Rain Light Rain
6:27 AM 57.0 °F - 55.9 °F 96% 29.67 in 5.0 mi SE 6.9 mph - 0.02 in Rain Light Rain
6:52 AM 57.9 °F - 55.9 °F 93% 29.64 in 4.0 mi East 4.6 mph - 0.08 in Rain Rain
7:15 AM 57.9 °F - 55.9 °F 93% 29.64 in 5.0 mi ESE 3.5 mph - 0.03 in Rain Rain
7:39 AM 57.9 °F - 55.9 °F 93% 29.64 in 2.5 mi SSE 5.8 mph - 0.10 in Rain Heavy Rain
7:52 AM 57.9 °F - 55.9 °F 93% 29.62 in 2.0 mi SSE 4.6 mph - 0.21 in Rain Heavy Rain
8:11 AM 57.9 °F - 55.9 °F 93% 29.61 in 2.0 mi Calm Calm - 0.10 in Rain Heavy Rain
8:20 AM 57.9 °F - 55.9 °F 93% 29.62 in 3.0 mi SW 4.6 mph - 0.13 in Rain Rain
8:26 AM 57.9 °F - 57.0 °F 97% 29.61 in 2.5 mi Calm Calm - 0.15 in Rain Rain
8:52 AM 57.0 °F - 55.9 °F 96% 29.60 in 2.5 mi West 10.4 mph - 0.29 in Rain Rain
9:04 AM 57.0 °F - 55.9 °F 96% 29.63 in 2.5 mi WSW 9.2 mph - 0.03 in Rain Rain
9:14 AM 57.0 °F - 55.0 °F 93% 29.62 in 2.5 mi West 18.4 mph - 0.07 in Rain Rain
9:17 AM 57.0 °F - 55.0 °F 93% 29.62 in 3.0 mi West 20.7 mph 25.3 mph 0.08 in Rain Rain
9:52 AM 53.1 °F - 50.0 °F 89% 29.65 in 10.0 mi West 13.8 mph 24.2 mph 0.12 in Rain Light Rain
10:52 AM 51.1 °F - 48.0 °F 89% 29.65 in 7.0 mi West 9.2 mph 18.4 mph 0.05 in Rain Light Rain
11:18 AM 51.1 °F - 46.9 °F 86% 29.66 in 9.0 mi WSW 15.0 mph - 0.01 in Rain Light Rain
11:41 AM 50.0 °F - 46.0 °F 86% 29.67 in 10.0 mi West 19.6 mph 25.3 mph 0.01 in   Overcast
11:52 AM 48.9 °F - 45.0 °F 86% 29.67 in 10.0 mi West 21.9 mph 29.9 mph 0.01 in   Overcast
12:52 PM 45.0 °F 38.2 °F 42.1 °F 90% 29.73 in 5.0 mi SW 15.0 mph 24.2 mph 0.00 in Rain Light Rain
1:52 PM 39.9 °F 31.4 °F 35.1 °F 83% 29.77 in 10.0 mi WSW 16.1 mph 36.8 mph 0.00 in Rain Light Rain
2:01 PM 39.9 °F 30.2 °F 35.1 °F 83% 29.77 in 10.0 mi WSW 20.7 mph 29.9 mph 0.00 in   Overcast
2:30 PM 39.9 °F 30.0 °F 33.1 °F 77% 29.78 in 10.0 mi West 21.9 mph 32.2 mph 0.00 in   Overcast
2:52 PM 39.9 °F 31.8 °F 34.0 °F 79% 29.78 in 10.0 mi WSW 15.0 mph 31.1 mph 0.00 in   Overcast
3:52 PM 39.0 °F 27.6 °F 30.9 °F 73% 29.82 in 10.0 mi WSW 27.6 mph 35.7 mph 0.00 in Rain Light Rain
4:52 PM 36.0 °F 24.4 °F 28.0 °F 73% 29.88 in 10.0 mi West 23.0 mph 40.3 mph 0.00 in   Overcast
5:52 PM 36.0 °F 25.0 °F 28.0 °F 73% 29.93 in 10.0 mi WSW 20.7 mph 33.4 mph N/A   Overcast
6:52 PM 35.1 °F 23.3 °F 27.0 °F 72% 29.99 in 10.0 mi West 23.0 mph 33.4 mph N/A   Overcast
7:52 PM 35.1 °F 23.0 °F 27.0 °F 72% 30.06 in 10.0 mi West 24.2 mph 39.1 mph N/A   Overcast
8:52 PM 35.1 °F 24.5 °F 28.0 °F 76% 30.12 in 10.0 mi West 18.4 mph - N/A   Overcast
9:52 PM 35.1 °F 24.8 °F 27.0 °F 72% 30.15 in 10.0 mi West 17.3 mph 25.3 mph N/A   Overcast
10:52 PM 34.0 °F 22.7 °F 27.0 °F 75% 30.17 in 10.0 mi West 19.6 mph - N/A   Overcast
11:52 PM 34.0 °F 24.2 °F 26.1 °F 73% 30.19 in 10.0 mi West 15.0 mph - N/A   Overcast